This demonstration page uses our WeatherBlox Daily Observations layout. Learn more.

Left ArrowRight Arrow

Hourly Observations for August 3, 2018

Temp ( °F °C ) Dew Point ( °F °C ) Humidity (%) Winds ( mph kmh ) Pressure ( in mb ) Visibility ( mi km ) Precip ( " mm )
12:57 am 00:57 Clear 73 22.8 62 16.7 69 69 S 15 24 29.91 1013 10 16 0.00 0.00
1:57 am 01:57 Clear 73 22.8 61 16.1 66 66 S 15 24 29.90 1013 10 16 0.00 0.00
2:57 am 02:57 Clear 71 21.7 61 16.1 71 71 SSW 13 20 29.90 1013 10 16 0.00 0.00
3:57 am 03:57 Clear 69 20.6 61 16.1 76 76 SSW 12 19 29.90 1013 10 16 0.00 0.00
4:57 am 04:57 Clear 68 20 61 16.1 78 78 S 9 15 29.91 1013 10 16 0.00 0.00
5:57 am 05:57 Clear 65 18.3 61 16.1 87 87 S 8 13 29.91 1013 10 16 0.00 0.00
6:57 am 06:57 Sunny 66 18.9 61 16.1 84 84 SSW 9 15 29.92 1013 10 16 0.00 0.00
7:57 am 07:57 Sunny 68 20 62 16.7 81 81 S 10 17 29.92 1013 10 16 0.00 0.00
8:57 am 08:57 Sunny 73 22.8 63 17.2 71 71 S 14 22 29.91 1013 10 16 0.00 0.00
9:57 am 09:57 Sunny 76 24.4 64 17.8 67 67 SSW 16 26 29.91 1013 10 16 0.00 0.00
10:57 am 10:57 Sunny 80 26.7 65 18.3 60 60 S 15 24 29.90 1012 10 16 0.00 0.00
11:57 am 11:57 Sunny 83 28.3 67 19.4 59 59 S 17 28 29.89 1012 10 16 0.00 0.00
12:57 pm 12:57 Sunny 84 28.9 67 19.4 57 57 S 17 28 29.87 1012 10 16 0.00 0.00
1:57 pm 13:57 Sunny 87 30.6 67 19.4 51 51 S 20 31 29.85 1011 10 16 0.00 0.00
2:57 pm 14:57 Sunny 89 31.7 68 20 50 50 SSE 17 28 29.84 1010 10 16 0.00 0.00
3:57 pm 15:57 Sunny 90 32.2 67 19.4 47 47 SSE 20 31 29.82 1010 10 16 0.00 0.00
4:57 pm 16:57 Sunny 89 31.7 67 19.4 48 48 S 16 26 29.81 1010 10 16 0.00 0.00
5:57 pm 17:57 Sunny 89 31.7 67 19.4 48 48 S 15 24 29.80 1009 10 16 0.00 0.00
6:57 pm 18:57 Sunny 86 30 67 19.4 53 53 S 14 22 29.80 1009 10 16 0.00 0.00
7:57 pm 19:57 Sunny 83 28.3 66 18.9 57 57 S 13 20 29.78 1008 10 16 0.00 0.00
8:57 pm 20:57 Clear 81 27.2 64 17.8 57 57 SSE 14 22 29.78 1009 10 16 0.00 0.00
9:57 pm 21:57 Clear 81 27.2 63 17.2 54 54 SSE 14 22 29.79 1009 10 16 0.00 0.00
10:51 pm 22:51 Cloudy with Thunderstorms 82 28 64 18 55 55 SSW 29 46 29.77 1008 3 5 0.00 0.00
10:54 pm 22:54 Cloudy with Thunderstorms 81 27 64 18 58 58 SSW 28 44 29.77 1008 2 3 0.00 0.00
10:57 pm 22:57 Cloudy with Thunderstorms 79 26.1 66 18.9 65 65 SSW 25 41 29.86 1011 2 3 0.00 0.00
11:02 pm 23:02 Cloudy with Thunderstorms 75 24 66 19 74 74 SSW 22 35 29.83 1010 3 5 0.00 0.00
11:29 pm 23:29 Cloudy with Mist and Fog 72 22 70 21 94 94 SW 13 20 29.85 1011 4 6 0.00 0.00
11:57 pm 23:57 Cloudy with Mist and Fog 72 22.2 69 20.6 91 91 SW 15 24 29.87 1012 3 5 0.11 2.79

Powered by AerisWeather